This demonstration page uses our WeatherBlox Daily Observations layout. Learn more.

Left ArrowRight Arrow

53.62937, 11.41316

Hourly Observations for April 16, 2021

Temp ( °F °C ) Dew Point ( °F °C ) Humidity (%) Winds ( mph kmh ) Pressure ( in mb ) Visibility ( mi km ) Precip ( " mm )
6:20 am 06:20 Mostly Sunny 36 2 34 1 93 93 W 2 4 30.36 1028 7 11 N/A
6:50 am 06:50 Mostly Sunny 36 2 34 1 93 93 VRB 1 2 30.36 1028 7 11 N/A
7:20 am 07:20 Mostly Sunny 37 3 36 2 93 93 VRB 1 2 30.36 1028 7 11 N/A
7:50 am 07:50 Mostly Sunny 39 4 36 2 87 87 VRB 1 2 30.36 1028 7 11 N/A
8:20 am 08:20 Mostly Sunny 41 5 36 2 81 81 NNE 6 9 30.36 1028 7 11 N/A
8:50 am 08:50 Mostly Sunny 43 6 36 2 76 76 N 9 15 30.36 1028 7 11 N/A
9:20 am 09:20 Mostly Sunny 45 7 28 -2 53 53 NNE 10 17 30.36 1028 7 11 N/A
9:50 am 09:50 Mostly Sunny 45 7 28 -2 53 53 NNE 10 17 30.36 1028 7 11 N/A
10:20 am 10:20 Mostly Sunny 45 7 27 -3 49 49 NNE 13 20 30.36 1028 7 11 N/A
10:50 am 10:50 Mostly Sunny 46 8 27 -3 46 46 NNE 13 20 30.36 1028 7 11 N/A
11:20 am 11:20 Mostly Sunny 48 9 27 -3 43 43 NNE 17 28 30.36 1028 7 11 N/A
11:50 am 11:50 Mostly Sunny 48 9 23 -5 37 37 NNE 16 26 30.36 1028 7 11 N/A
12:20 pm 12:20 Mostly Sunny 48 9 25 -4 40 40 NE 16 26 30.36 1028 7 11 N/A
12:50 pm 12:50 Mostly Sunny 48 9 27 -3 43 43 NE 17 28 30.36 1028 7 11 N/A
1:20 pm 13:20 Mostly Sunny 48 9 27 -3 43 43 NNE 17 28 30.36 1028 7 11 N/A
1:50 pm 13:50 Mostly Sunny 48 9 27 -3 43 43 NE 18 30 30.33 1027 7 11 N/A
2:20 pm 14:20 Mostly Sunny 50 10 25 -4 37 37 NE 16 26 30.33 1027 7 11 N/A
2:50 pm 14:50 Mostly Sunny 50 10 27 -3 40 40 NE 15 24 30.33 1027 7 11 N/A
3:20 pm 15:20 Mostly Sunny 50 10 30 -1 47 47 N 13 20 30.33 1027 7 11 N/A
3:50 pm 15:50 Mostly Sunny 50 10 28 -2 43 43 NNE 14 22 30.33 1027 7 11 N/A
4:20 pm 16:20 Mostly Sunny 50 10 28 -2 43 43 N 13 20 30.33 1027 7 11 N/A
4:50 pm 16:50 Mostly Sunny 50 10 30 -1 47 47 NNE 12 19 30.33 1027 7 11 N/A
5:20 pm 17:20 Mostly Sunny 50 10 28 -2 43 43 NNE 12 19 30.30 1026 7 11 N/A
5:50 pm 17:50 Mostly Sunny 50 10 28 -2 43 43 N 10 17 30.30 1026 7 11 N/A
6:20 pm 18:20 Mostly Sunny 50 10 27 -3 40 40 N 12 19 30.30 1026 7 11 N/A
6:50 pm 18:50 Mostly Sunny 48 9 21 -6 34 34 N 13 20 30.30 1026 7 11 N/A
7:20 pm 19:20 Mostly Sunny 48 9 21 -6 34 34 N 12 19 30.30 1026 7 11 N/A
7:50 pm 19:50 Mostly Sunny 46 8 21 -6 37 37 N 10 17 30.30 1026 7 11 N/A
8:20 pm 20:20 Mostly Sunny 45 7 21 -6 39 39 N 8 13 30.33 1027 7 11 N/A
8:50 pm 20:50 Mostly Clear 45 7 21 -6 39 39 N 7 11 30.33 1027 7 11 N/A
9:20 pm 21:20 Mostly Clear 41 5 23 -5 49 49 NNW 3 6 30.33 1027 7 11 N/A
9:50 pm 21:50 Mostly Clear 41 5 25 -4 53 53 NW 3 6 30.33 1027 7 11 N/A

Powered by AerisWeather